Time,TemperatureF,DewpointF,PressureIn,WindDirection,WindDirectionDegrees,WindSpeedMPH,WindSpeedGustMPH,Humidity,HourlyPrecipIn,Conditions,Clouds,dailyrainin,SolarRadiationWatts/m^2,SoftwareType,DateUTC
2013-03-28 14:12:00,43.0,23.0,-100.00,SSE,151,8.0,12.0,45,0.00,,,0.00,741.000000,,2013-03-28 19:12:00,
2013-03-28 14:22:00,43.0,23.0,-100.00,SSE,151,8.0,12.0,45,0.00,,,0.00,741.000000,,2013-03-28 19:22:00,
2013-03-28 14:33:00,43.0,23.0,-100.00,SSE,151,8.0,12.0,45,0.00,,,0.00,741.000000,,2013-03-28 19:33:00,
2013-03-28 14:42:00,43.0,23.0,-100.00,SSE,151,8.0,12.0,45,0.00,,,0.00,741.000000,,2013-03-28 19:42:00,
2013-03-28 15:12:00,44.0,25.0,-100.00,SE,137,7.0,12.0,46,0.00,,,0.00,763.000000,,2013-03-28 20:12:00,
2013-03-28 15:22:00,44.0,25.0,-100.00,SE,137,7.0,12.0,46,0.00,,,0.00,763.000000,,2013-03-28 20:22:00,
2013-03-28 15:32:00,44.0,25.0,-100.00,SE,137,7.0,12.0,46,0.00,,,0.00,763.000000,,2013-03-28 20:32:00,
2013-03-28 15:42:00,44.0,25.0,-100.00,SE,137,7.0,12.0,46,0.00,,,0.00,763.000000,,2013-03-28 20:42:00,
2013-03-28 16:12:00,43.0,25.0,-100.00,SE,141,7.0,12.0,48,0.00,,,0.00,605.000000,,2013-03-28 21:12:00,
2013-03-28 16:22:00,43.0,25.0,-100.00,SE,141,7.0,12.0,48,0.00,,,0.00,605.000000,,2013-03-28 21:22:00,
2013-03-28 16:32:00,43.0,25.0,-100.00,SE,141,7.0,12.0,48,0.00,,,0.00,605.000000,,2013-03-28 21:32:00,
2013-03-28 16:43:00,43.0,25.0,-100.00,SE,141,7.0,12.0,48,0.00,,,0.00,605.000000,,2013-03-28 21:43:00,
2013-03-28 17:12:00,44.0,26.0,-100.00,SSE,149,7.0,11.0,49,0.00,,,0.00,418.000000,,2013-03-28 22:12:00,
2013-03-28 17:22:00,44.0,26.0,-100.00,SSE,149,7.0,11.0,49,0.00,,,0.00,418.000000,,2013-03-28 22:22:00,
2013-03-28 17:32:00,44.0,26.0,-100.00,SSE,149,7.0,11.0,49,0.00,,,0.00,418.000000,,2013-03-28 22:32:00,
2013-03-28 17:42:00,44.0,26.0,-100.00,SSE,149,7.0,11.0,49,0.00,,,0.00,418.000000,,2013-03-28 22:42:00,
2013-03-28 18:12:00,43.0,25.0,-100.00,East,98,6.0,10.0,49,0.00,,,0.00,373.000000,,2013-03-28 23:12:00,
2013-03-28 18:22:00,43.0,25.0,-100.00,East,98,6.0,10.0,49,0.00,,,0.00,373.000000,,2013-03-28 23:22:00,
2013-03-28 18:32:00,43.0,25.0,-100.00,East,98,6.0,10.0,49,0.00,,,0.00,373.000000,,2013-03-28 23:32:00,
2013-03-28 18:42:00,43.0,25.0,-100.00,East,98,6.0,10.0,49,0.00,,,0.00,373.000000,,2013-03-28 23:42:00,
2013-03-28 19:12:00,40.0,25.0,-100.00,ESE,118,5.0,10.0,54,0.00,,,0.00,139.000000,,2013-03-29 00:12:00,
2013-03-28 19:22:00,40.0,25.0,-100.00,ESE,118,5.0,10.0,54,0.00,,,0.00,139.000000,,2013-03-29 00:22:00,
2013-03-28 19:32:00,40.0,25.0,-100.00,ESE,118,5.0,10.0,54,0.00,,,0.00,139.000000,,2013-03-29 00:32:00,
2013-03-28 19:42:00,40.0,25.0,-100.00,ESE,118,5.0,10.0,54,0.00,,,0.00,139.000000,,2013-03-29 00:42:00,
2013-03-28 20:12:00,38.0,26.0,-100.00,SE,134,4.0,7.0,62,0.00,,,-99.99,19.000000,,2013-03-29 01:12:00,
2013-03-28 20:22:00,38.0,26.0,-100.00,SE,134,4.0,7.0,62,0.00,,,-99.99,19.000000,,2013-03-29 01:22:00,
2013-03-28 20:32:00,38.0,26.0,-100.00,SE,134,4.0,7.0,62,0.00,,,-99.99,19.000000,,2013-03-29 01:32:00,
2013-03-28 20:42:00,38.0,26.0,-100.00,SE,134,4.0,7.0,62,0.00,,,-99.99,19.000000,,2013-03-29 01:42:00,
2013-03-28 21:12:00,37.0,27.0,-100.00,ESE,119,4.0,7.0,66,0.00,,,-99.99,1.000000,,2013-03-29 02:12:00,
2013-03-28 21:22:00,37.0,27.0,-100.00,ESE,119,4.0,7.0,66,0.00,,,-99.99,1.000000,,2013-03-29 02:22:00,
2013-03-28 21:32:00,37.0,27.0,-100.00,ESE,119,4.0,7.0,66,0.00,,,-99.99,1.000000,,2013-03-29 02:32:00,
2013-03-28 21:42:00,37.0,27.0,-100.00,ESE,119,4.0,7.0,66,0.00,,,-99.99,1.000000,,2013-03-29 02:42:00,
2013-03-28 22:12:00,35.0,27.0,-100.00,East,94,4.0,6.0,73,0.00,,,-99.99,1.000000,,2013-03-29 03:12:00,
2013-03-28 22:22:00,35.0,27.0,-100.00,East,94,4.0,6.0,73,0.00,,,-99.99,1.000000,,2013-03-29 03:22:00,
2013-03-28 22:32:00,35.0,27.0,-100.00,East,94,4.0,6.0,73,0.00,,,-99.99,1.000000,,2013-03-29 03:32:00,
2013-03-28 22:42:00,35.0,27.0,-100.00,East,94,4.0,6.0,73,0.00,,,-99.99,1.000000,,2013-03-29 03:42:00,
2013-03-28 23:13:00,35.0,28.0,-100.00,ESE,123,4.0,6.0,75,0.00,,,-99.99,1.000000,,2013-03-29 04:13:00,
2013-03-28 23:22:00,35.0,28.0,-100.00,ESE,123,4.0,6.0,75,0.00,,,-99.99,1.000000,,2013-03-29 04:22:00,
2013-03-28 23:33:00,35.0,28.0,-100.00,ESE,123,4.0,6.0,75,0.00,,,-99.99,1.000000,,2013-03-29 04:33:00,
2013-03-28 23:43:00,35.0,28.0,-100.00,ESE,123,4.0,6.0,75,0.00,,,-99.99,1.000000,,2013-03-29 04:43:00,